Location: Azul
(36.7830°S, 59.8500°W)
Time: 09:51:35
(UTC-03:00)

ISS - Pass Details

Date: 11 December 2017
Orbit: 402 x 406 km, 51.6° (Epoch: 16 December)

Event Time Altitude Azimuth Distance (km) Brightness Sun altitude
Exits shadow 02:28:31 26° 172° (S) 860 -1.6 -26.1°
Drops below altitude 10° 02:30:26 10° 147° (SSE) 1,485 0.0 -25.9°
Sets 02:32:39 0° 137° (SE) 2,352 1.2 -25.7°
